| time (UTC) | temp F | wind direction | speed knots | gust knots | rain 1hr in | rain 24hr in | rain mn in | humidity % | barometer mb |
| 20260506124555 | 54 | 245 | 2.6 | 7.0 | 0.00 | 0.03 | 0.00 | 88 | 1020.5 |
| 20260506123057 | 54 | 246 | 1.7 | 5.2 | 0.00 | 0.03 | 0.00 | 88 | 1020.6 |
| 20260506121557 | 54 | 232 | 2.6 | 6.1 | 0.00 | 0.03 | 0.00 | 88 | 1020.6 |
| 20260506120059 | 54 | 267 | 1.7 | 6.1 | 0.00 | 0.03 | 0.00 | 88 | 1020.5 |
| 20260506114602 | 54 | 244 | 0.9 | 7.8 | 0.00 | 0.03 | 0.00 | 88 | 1020.4 |
| 20260506113100 | 54 | 202 | 1.7 | 7.0 | 0.00 | 0.03 | 0.00 | 88 | 1020.4 |
| 20260506111603 | 54 | 259 | 1.7 | 6.1 | 0.00 | 0.03 | 0.00 | 88 | 1020.3 |
| 20260506110111 | 54 | 259 | 0.9 | 4.3 | 0.00 | 0.03 | 0.00 | 88 | 1020.2 |
| 20260506104601 | 54 | 205 | 0.0 | 4.3 | 0.00 | 0.04 | 0.00 | 88 | 1020.1 |
| 20260506103057 | 54 | 213 | 1.7 | 4.3 | 0.00 | 0.04 | 0.00 | 89 | 1020.0 |
| 20260506101556 | 54 | 253 | 0.9 | 3.5 | 0.00 | 0.04 | 0.00 | 89 | 1019.8 |
| 20260506100056 | 54 | 0 | 0.9 | 3.5 | 0.00 | 0.04 | 0.00 | 89 | 1019.9 |
| 20260506094559 | 54 | 204 | 0.9 | 3.5 | 0.00 | 0.05 | 0.00 | 89 | 1019.8 |
| 20260506093100 | 54 | 275 | 0.9 | 4.3 | 0.00 | 0.05 | 0.00 | 89 | 1019.9 |
| 20260506091601 | 54 | 177 | 1.7 | 4.3 | 0.00 | 0.05 | 0.00 | 89 | 1020.0 |
| 20260506090101 | 54 | 218 | 0.0 | 4.3 | 0.00 | 0.05 | 0.00 | 89 | 1019.9 |
| 20260506084602 | 54 | 0 | 0.0 | 4.3 | 0.00 | 0.07 | 0.00 | 89 | 1020.0 |
| 20260506083057 | 54 | 186 | 0.9 | 4.3 | 0.00 | 0.07 | 0.00 | 89 | 1019.8 |
| 20260506081600 | 54 | 0 | 0.0 | 3.5 | 0.00 | 0.07 | 0.00 | 89 | 1019.9 |
| 20260506080105 | 54 | 179 | 1.7 | 5.2 | 0.00 | 0.07 | 0.00 | 89 | 1019.8 |
| 20260506073058 | 55 | 192 | 1.7 | 4.3 | 0.00 | 0.09 | 0.00 | 89 | 1019.5 |
| 20260506071602 | 55 | 186 | 1.7 | 5.2 | 0.00 | 0.09 | 0.00 | 88 | 1019.5 |
| 20260506061555 | 55 | 175 | 2.6 | 5.2 | 0.00 | 0.11 | 0.09 | 88 | 1019.4 |
| 20260506050105 | 55 | 172 | 1.7 | 6.1 | 0.00 | 0.12 | 0.09 | 87 | 1018.8 |
| 20260506044555 | 55 | 185 | 1.7 | 6.1 | 0.00 | 0.14 | 0.09 | 87 | 1018.5 |
| 20260506043100 | 55 | 164 | 2.6 | 5.2 | 0.00 | 0.14 | 0.09 | 87 | 1018.5 |
| 20260506041558 | 55 | 205 | 0.9 | 4.3 | 0.00 | 0.14 | 0.09 | 87 | 1018.3 |
| 20260506040054 | 55 | 199 | 0.0 | 5.2 | 0.00 | 0.14 | 0.09 | 87 | 1018.1 |
| 20260506034614 | 56 | 187 | 1.7 | 7.0 | 0.00 | 0.15 | 0.09 | 86 | 1018.1 |
| 20260506033056 | 56 | 194 | 2.6 | 6.1 | 0.00 | 0.15 | 0.09 | 86 | 1018.0 |
| 20260506031607 | 56 | 188 | 2.6 | 7.0 | 0.00 | 0.15 | 0.09 | 85 | 1017.7 |
| 20260506030058 | 56 | 185 | 2.6 | 7.8 | 0.00 | 0.15 | 0.09 | 85 | 1017.5 |
| 20260506024613 | 57 | 188 | 1.7 | 8.7 | 0.00 | 0.18 | 0.09 | 84 | 1017.1 |
| 20260506023055 | 57 | 202 | 3.5 | 7.8 | 0.00 | 0.18 | 0.09 | 84 | 1017.4 |
| 20260506021555 | 57 | 188 | 3.5 | 8.7 | 0.00 | 0.18 | 0.09 | 83 | 1017.2 |
| 20260506020058 | 58 | 176 | 3.5 | 8.7 | 0.00 | 0.18 | 0.09 | 83 | 1017.2 |
| 20260506014557 | 58 | 192 | 2.6 | 7.8 | 0.00 | 0.21 | 0.09 | 83 | 1017.3 |
| 20260506013108 | 58 | 184 | 3.5 | 8.7 | 0.00 | 0.21 | 0.09 | 83 | 1017.5 |
| 20260506011607 | 58 | 185 | 4.3 | 8.7 | 0.00 | 0.21 | 0.09 | 82 | 1017.4 |
| 20260506010058 | 58 | 178 | 4.3 | 7.8 | 0.00 | 0.21 | 0.09 | 82 | 1017.3 |
| 20260506004558 | 58 | 211 | 3.5 | 7.0 | 0.00 | 0.25 | 0.09 | 82 | 1017.3 |
| 20260506003058 | 58 | 224 | 4.3 | 7.8 | 0.00 | 0.25 | 0.09 | 82 | 1017.3 |
| 20260506001557 | 59 | 215 | 4.3 | 8.7 | 0.00 | 0.25 | 0.09 | 81 | 1017.4 |
| 20260506000058 | 59 | 205 | 3.5 | 7.8 | 0.00 | 0.25 | 0.09 | 81 | 1017.3 |
| 20260505234557 | 59 | 199 | 3.5 | 8.7 | 0.00 | 0.25 | 0.09 | 80 | 1017.3 |
| 20260505233059 | 59 | 182 | 3.5 | 8.7 | 0.00 | 0.25 | 0.09 | 80 | 1017.4 |
| 20260505231601 | 60 | 164 | 3.5 | 7.8 | 0.00 | 0.25 | 0.09 | 79 | 1017.5 |
| 20260505230107 | 60 | 238 | 4.3 | 8.7 | 0.00 | 0.25 | 0.09 | 80 | 1017.4 |
| 20260505224602 | 60 | 193 | 4.3 | 7.8 | 0.00 | 0.25 | 0.09 | 80 | 1017.5 |
| 20260505223110 | 60 | 226 | 3.5 | 8.7 | 0.00 | 0.25 | 0.09 | 80 | 1017.6 |
| 20260505221559 | 60 | 169 | 4.3 | 8.7 | 0.00 | 0.25 | 0.09 | 79 | 1017.5 |
| 20260505220103 | 60 | 186 | 4.3 | 8.7 | 0.00 | 0.25 | 0.09 | 80 | 1017.5 |
| 20260505214555 | 60 | 208 | 4.3 | 7.8 | 0.00 | 0.25 | 0.09 | 80 | 1017.6 |
| 20260505213100 | 60 | 240 | 3.5 | 7.8 | 0.00 | 0.25 | 0.09 | 80 | 1017.6 |
| 20260505211558 | 60 | 188 | 4.3 | 8.7 | 0.00 | 0.25 | 0.09 | 79 | 1017.9 |
| 20260505210057 | 60 | 214 | 3.5 | 7.8 | 0.00 | 0.25 | 0.09 | 79 | 1017.7 |
| 20260505204609 | 61 | 188 | 3.5 | 8.7 | 0.00 | 0.25 | 0.09 | 79 | 1017.6 |
| 20260505203118 | 60 | 217 | 4.3 | 7.0 | 0.00 | 0.25 | 0.09 | 78 | 1017.7 |
| 20260505201603 | 59 | 225 | 3.5 | 7.0 | 0.00 | 0.25 | 0.09 | 80 | 1017.7 |
| 20260505200055 | 59 | 195 | 3.5 | 8.7 | 0.00 | 0.25 | 0.09 | 82 | 1017.8 |
| 20260505194607 | 59 | 203 | 3.5 | 7.8 | 0.00 | 0.25 | 0.09 | 83 | 1017.9 |
| 20260505193053 | 59 | 201 | 3.5 | 7.8 | 0.00 | 0.25 | 0.09 | 83 | 1017.8 |
| 20260505191558 | 58 | 184 | 2.6 | 8.7 | 0.00 | 0.25 | 0.09 | 84 | 1017.9 |
| 20260505190053 | 58 | 207 | 2.6 | 7.8 | 0.00 | 0.25 | 0.09 | 85 | 1017.9 |
| 20260505184555 | 58 | 253 | 2.6 | 6.1 | 0.00 | 0.25 | 0.09 | 86 | 1017.9 |
| 20260505183100 | 57 | 226 | 3.5 | 7.8 | 0.00 | 0.25 | 0.09 | 88 | 1017.6 |
| 20260505181555 | 56 | 192 | 4.3 | 7.8 | 0.00 | 0.25 | 0.09 | 89 | 1017.5 |
| 20260505180054 | 56 | 228 | 3.5 | 8.7 | 0.00 | 0.25 | 0.09 | 89 | 1017.5 |
| 20260505174557 | 56 | 182 | 3.5 | 8.7 | 0.00 | 0.25 | 0.09 | 90 | 1017.1 |
| 20260505173054 | 56 | 226 | 2.6 | 6.1 | 0.00 | 0.25 | 0.09 | 90 | 1017.0 |
| 20260505171558 | 55 | 224 | 2.6 | 7.0 | 0.00 | 0.25 | 0.09 | 90 | 1017.0 |
| 20260505170105 | 56 | 208 | 2.6 | 7.8 | 0.00 | 0.25 | 0.09 | 91 | 1016.8 |
| 20260505164605 | 55 | 205 | 2.6 | 6.1 | 0.00 | 0.25 | 0.09 | 91 | 1016.8 |
| 20260505163100 | 55 | 151 | 2.6 | 6.1 | 0.00 | 0.25 | 0.09 | 91 | 1016.5 |
| 20260505161555 | 55 | 225 | 1.7 | 7.8 | 0.01 | 0.25 | 0.09 | 91 | 1016.6 |
| 20260505153109 | 55 | 215 | 1.7 | 8.7 | 0.01 | 0.25 | 0.09 | 91 | 1016.1 |
| 20260505151600 | 55 | 0 | 1.7 | 9.6 | 0.00 | 0.24 | 0.08 | 91 | 1016.2 |
| 20260505140107 | 54 | 0 | 1.7 | 6.1 | 0.01 | 0.24 | 0.08 | 91 | 1015.7 |
| 20260505130104 | 54 | 0 | 0.9 | 5.2 | 0.01 | 0.23 | 0.07 | 91 | 1015.5 |